Powrót do katalogu

STARLINK-38077

AktywnyŁącznośćSSO
NORAD 69983·PAYLOAD·🇺🇸 United States

Wystrzelony Jul 11, 2026 z Vandenberg Space Force Base

Loading…

Następne Przeloty (najbliższe 24 godziny)

TLE

ŚwieżeSource: CelesTrak SupGP

Epoka: Sep 15, 2026, 03:16 UTC

1 69983C 26159J   26258.13659722 -.02678700  00000+0 -29850-1 0  2580
2 69983  97.2848 100.0073 0001488 102.2512 254.3148 15.64213894    11

Śledź STARLINK-38077 w czasie rzeczywistym z AllMySat

Download on the App Store